timestamp,wind_dir_avg,wind_spd_max_dir,wind_spd_avg,wind_spd_gust,battery_voltage,lat,long
2018-12-06 00:00:00+00:00,310.0,315.0,9.41,10.96,,47.59359,-54.27349
2018-12-06 00:10:00+00:00,284.0,290.0,8.16,9.0,,47.59359,-54.27349
2018-12-06 00:20:00+00:00,290.0,292.0,8.32,9.6,,47.59359,-54.27349
2018-12-06 00:30:00+00:00,296.0,304.0,7.87,10.22,,47.59359,-54.27349
2018-12-06 00:40:00+00:00,303.0,305.0,7.46,9.95,,47.59359,-54.27349
2018-12-06 00:50:00+00:00,302.0,299.0,7.76,9.3,,47.59359,-54.27349
2018-12-06 01:00:00+00:00,300.0,309.0,7.49,8.58,,47.59359,-54.27349
2018-12-06 01:10:00+00:00,300.0,307.0,8.98,10.36,,47.59359,-54.27349
2018-12-06 01:20:00+00:00,295.0,300.0,7.85,9.9,,47.59359,-54.27349
2018-12-06 01:30:00+00:00,301.0,304.0,8.87,10.38,,47.59359,-54.27349
2018-12-06 01:40:00+00:00,289.0,294.0,8.34,9.59,,47.59359,-54.27349
2018-12-06 01:50:00+00:00,291.0,293.0,7.61,9.47,,47.59359,-54.27349
2018-12-06 02:00:00+00:00,291.0,288.0,7.3,9.24,,47.59359,-54.27349
2018-12-06 02:10:00+00:00,287.0,299.0,8.19,9.52,,47.59359,-54.27349
2018-12-06 02:20:00+00:00,291.0,301.0,7.99,10.17,,47.59359,-54.27349
2018-12-06 02:30:00+00:00,302.0,305.0,9.6,11.0,,47.59359,-54.27349
2018-12-06 02:40:00+00:00,307.0,316.0,9.57,11.41,,47.59359,-54.27349
2018-12-06 02:50:00+00:00,311.0,312.0,9.8,12.27,,47.59359,-54.27349
2018-12-06 03:00:00+00:00,312.0,314.0,10.63,11.44,,47.59359,-54.27349
2018-12-06 03:10:00+00:00,313.0,313.0,10.52,11.87,,47.59359,-54.27349
2018-12-06 03:20:00+00:00,311.0,310.0,9.75,11.2,,47.59359,-54.27349
2018-12-06 03:30:00+00:00,313.0,310.0,10.31,11.85,,47.59359,-54.27349
2018-12-06 03:40:00+00:00,305.0,308.0,9.87,11.76,,47.59359,-54.27349
2018-12-06 03:50:00+00:00,303.0,305.0,9.15,10.51,,47.59359,-54.27349
2018-12-06 04:00:00+00:00,306.0,308.0,10.22,11.91,,47.59359,-54.27349
2018-12-06 04:10:00+00:00,308.0,311.0,10.39,12.18,,47.59359,-54.27349
2018-12-06 04:20:00+00:00,299.0,302.0,11.25,16.52,,47.59359,-54.27349
2018-12-06 04:30:00+00:00,287.0,287.0,8.75,10.0,,47.59359,-54.27349
2018-12-06 04:40:00+00:00,282.0,283.0,8.06,10.35,,47.59359,-54.27349
2018-12-06 04:50:00+00:00,270.0,269.0,7.31,8.99,,47.59359,-54.27349
2018-12-06 05:00:00+00:00,287.0,291.0,6.22,8.42,,47.59359,-54.27349
2018-12-06 05:10:00+00:00,310.0,311.0,5.52,7.23,,47.59359,-54.27349
2018-12-06 05:20:00+00:00,304.0,307.0,5.65,6.78,,47.59359,-54.27349
2018-12-06 05:30:00+00:00,294.0,301.0,5.09,6.6,,47.59359,-54.27349
2018-12-06 05:40:00+00:00,308.0,322.0,3.42,4.35,,47.59359,-54.27349
2018-12-06 05:50:00+00:00,348.0,343.0,1.78,2.84,,47.59359,-54.27349
2018-12-06 06:00:00+00:00,299.0,303.0,4.08,4.84,,47.59359,-54.27349
2018-12-06 06:10:00+00:00,267.0,264.0,3.2,4.4,,47.59359,-54.27349
2018-12-06 06:20:00+00:00,309.0,306.0,2.38,3.17,,47.59359,-54.27349
2018-12-06 06:30:00+00:00,296.0,285.0,3.34,4.72,,47.59359,-54.27349
2018-12-06 06:40:00+00:00,297.0,305.0,3.71,5.61,,47.59359,-54.27349
2018-12-06 06:50:00+00:00,282.0,277.0,4.64,6.91,,47.59359,-54.27349
2018-12-06 07:00:00+00:00,290.0,292.0,5.73,6.7,,47.59359,-54.27349
2018-12-06 07:10:00+00:00,314.0,316.0,6.27,7.62,,47.59359,-54.27349
2018-12-06 07:20:00+00:00,304.0,304.0,4.86,5.98,,47.59359,-54.27349
2018-12-06 07:30:00+00:00,278.0,291.0,2.05,2.86,,47.59359,-54.27349
2018-12-06 07:40:00+00:00,343.0,352.0,2.72,3.43,,47.59359,-54.27349
2018-12-06 07:50:00+00:00,310.0,307.0,2.41,2.96,,47.59359,-54.27349
2018-12-06 08:00:00+00:00,303.0,285.0,2.32,5.77,,47.59359,-54.27349
2018-12-06 08:10:00+00:00,342.0,348.0,4.21,4.98,,47.59359,-54.27349
2018-12-06 08:20:00+00:00,26.0,30.0,2.48,4.05,,47.59359,-54.27349
2018-12-06 08:30:00+00:00,38.0,42.0,4.32,5.47,,47.59359,-54.27349
2018-12-06 08:40:00+00:00,33.0,47.0,3.43,4.42,,47.59359,-54.27349
2018-12-06 08:50:00+00:00,22.0,15.0,5.72,6.78,,47.59359,-54.27349
2018-12-06 09:00:00+00:00,33.0,26.0,1.1,1.7,,47.59359,-54.27349
2018-12-06 09:10:00+00:00,275.0,289.0,1.93,2.7,,47.59359,-54.27349
2018-12-06 09:20:00+00:00,229.0,229.0,5.36,6.12,,47.59359,-54.27349
2018-12-06 09:30:00+00:00,198.0,201.0,3.27,4.54,,47.59359,-54.27349
2018-12-06 09:40:00+00:00,246.0,248.0,3.68,4.14,,47.59359,-54.27349
2018-12-06 09:50:00+00:00,265.0,270.0,5.47,6.96,,47.59359,-54.27349
2018-12-06 10:00:00+00:00,273.0,273.0,4.5,5.31,,47.59359,-54.27349
2018-12-06 10:10:00+00:00,303.0,298.0,3.29,4.39,,47.59359,-54.27349
2018-12-06 10:20:00+00:00,295.0,290.0,4.63,6.06,,47.59359,-54.27349
2018-12-06 10:30:00+00:00,258.0,254.0,3.58,4.9,,47.59359,-54.27349
2018-12-06 10:40:00+00:00,283.0,285.0,5.55,6.24,,47.59359,-54.27349
2018-12-06 10:50:00+00:00,302.0,298.0,5.64,6.5,,47.59359,-54.27349
2018-12-06 11:00:00+00:00,311.0,307.0,5.05,6.04,,47.59359,-54.27349
2018-12-06 11:10:00+00:00,325.0,324.0,4.8,5.32,,47.59359,-54.27349
2018-12-06 11:20:00+00:00,307.0,306.0,3.91,4.6,,47.59359,-54.27349
2018-12-06 11:30:00+00:00,310.0,315.0,3.59,4.33,,47.59359,-54.27349
2018-12-06 11:40:00+00:00,312.0,311.0,3.34,4.2,,47.59359,-54.27349
2018-12-06 11:50:00+00:00,318.0,315.0,2.89,3.34,,47.59359,-54.27349
2018-12-06 12:00:00+00:00,334.0,326.0,2.31,2.91,,47.59359,-54.27349
2018-12-06 12:10:00+00:00,328.0,326.0,2.2,3.01,,47.59359,-54.27349
2018-12-06 12:20:00+00:00,358.0,2.0,1.67,1.99,,47.59359,-54.27349
2018-12-06 12:30:00+00:00,345.0,342.0,2.31,3.17,,47.59359,-54.27349
2018-12-06 12:40:00+00:00,350.0,341.0,2.43,2.81,,47.59359,-54.27349
2018-12-06 12:50:00+00:00,357.0,354.0,2.29,2.67,,47.59359,-54.27349
2018-12-06 13:00:00+00:00,329.0,338.0,2.71,3.84,,47.59359,-54.27349
2018-12-06 13:10:00+00:00,354.0,356.0,2.75,3.33,,47.59359,-54.27349
2018-12-06 13:20:00+00:00,2.0,6.0,2.13,2.76,,47.59359,-54.27349
2018-12-06 13:30:00+00:00,344.0,335.0,2.24,2.86,,47.59359,-54.27349
2018-12-06 13:40:00+00:00,352.0,357.0,3.14,3.62,,47.59359,-54.27349
2018-12-06 13:50:00+00:00,16.0,14.0,3.93,4.55,,47.59359,-54.27349
2018-12-06 14:00:00+00:00,25.0,17.0,4.12,4.97,,47.59359,-54.27349
2018-12-06 14:10:00+00:00,34.0,35.0,5.42,5.96,,47.59359,-54.27349
2018-12-06 14:20:00+00:00,48.0,53.0,6.07,6.97,,47.59359,-54.27349
2018-12-06 14:30:00+00:00,57.0,58.0,5.89,6.86,,47.59359,-54.27349
2018-12-06 14:40:00+00:00,69.0,69.0,6.42,7.44,,47.59359,-54.27349
2018-12-06 14:50:00+00:00,71.0,78.0,6.34,8.55,,47.59359,-54.27349
2018-12-06 15:00:00+00:00,48.0,47.0,7.04,8.51,,47.59359,-54.27349
2018-12-06 15:10:00+00:00,71.0,64.0,7.1,8.24,,47.59359,-54.27349
2018-12-06 15:20:00+00:00,60.0,55.0,9.28,10.83,,47.59359,-54.27349
2018-12-06 15:30:00+00:00,71.0,69.0,9.21,10.37,,47.59359,-54.27349
2018-12-06 15:40:00+00:00,64.0,69.0,9.85,12.79,,47.59359,-54.27349
2018-12-06 15:50:00+00:00,62.0,68.0,9.71,11.21,,47.59359,-54.27349
2018-12-06 16:00:00+00:00,73.0,73.0,10.1,11.32,,47.59359,-54.27349
2018-12-06 16:10:00+00:00,75.0,85.0,8.88,10.67,,47.59359,-54.27349
2018-12-06 16:20:00+00:00,87.0,89.0,8.0,9.81,,47.59359,-54.27349
2018-12-06 16:30:00+00:00,82.0,83.0,8.72,10.4,,47.59359,-54.27349
2018-12-06 16:40:00+00:00,90.0,86.0,7.3,9.45,,47.59359,-54.27349
2018-12-06 16:50:00+00:00,84.0,77.0,6.87,8.86,,47.59359,-54.27349
2018-12-06 17:00:00+00:00,80.0,83.0,7.48,8.75,,47.59359,-54.27349
2018-12-06 17:10:00+00:00,86.0,75.0,7.19,9.76,,47.59359,-54.27349
2018-12-06 17:20:00+00:00,91.0,87.0,7.17,9.91,,47.59359,-54.27349
2018-12-06 17:30:00+00:00,88.0,83.0,7.28,10.22,,47.59359,-54.27349
2018-12-06 17:40:00+00:00,82.0,79.0,10.49,12.06,,47.59359,-54.27349
2018-12-06 17:50:00+00:00,86.0,78.0,8.76,11.69,,47.59359,-54.27349
2018-12-06 18:00:00+00:00,90.0,84.0,8.87,10.79,,47.59359,-54.27349
2018-12-06 18:10:00+00:00,87.0,83.0,8.62,10.8,,47.59359,-54.27349
2018-12-06 18:20:00+00:00,86.0,84.0,11.09,12.7,,47.59359,-54.27349
2018-12-06 18:30:00+00:00,81.0,87.0,12.2,14.08,,47.59359,-54.27349
2018-12-06 18:40:00+00:00,82.0,81.0,12.32,14.48,,47.59359,-54.27349
2018-12-06 18:50:00+00:00,81.0,77.0,9.58,11.05,,47.59359,-54.27349
2018-12-06 19:00:00+00:00,84.0,82.0,10.52,11.95,,47.59359,-54.27349
2018-12-06 19:10:00+00:00,78.0,75.0,11.08,12.8,,47.59359,-54.27349
2018-12-06 19:20:00+00:00,71.0,71.0,11.2,14.07,,47.59359,-54.27349
2018-12-06 19:30:00+00:00,71.0,67.0,11.43,13.46,,47.59359,-54.27349
2018-12-06 19:40:00+00:00,79.0,77.0,10.16,14.02,,47.59359,-54.27349
2018-12-06 19:50:00+00:00,79.0,72.0,12.26,13.86,,47.59359,-54.27349
2018-12-06 20:00:00+00:00,77.0,77.0,12.25,13.94,,47.59359,-54.27349
2018-12-06 20:10:00+00:00,83.0,74.0,11.13,14.91,,47.59359,-54.27349
2018-12-06 20:20:00+00:00,77.0,76.0,12.53,15.07,,47.59359,-54.27349
2018-12-06 20:30:00+00:00,84.0,83.0,11.2,13.94,,47.59359,-54.27349
2018-12-06 20:40:00+00:00,85.0,83.0,11.27,13.97,,47.59359,-54.27349
2018-12-06 20:50:00+00:00,79.0,72.0,13.86,16.14,,47.59359,-54.27349
2018-12-06 21:00:00+00:00,79.0,75.0,16.43,18.54,,47.59359,-54.27349
2018-12-06 21:10:00+00:00,78.0,75.0,15.58,18.63,,47.59359,-54.27349
2018-12-06 21:20:00+00:00,86.0,83.0,13.56,16.39,,47.59359,-54.27349
2018-12-06 21:30:00+00:00,83.0,81.0,15.55,17.36,,47.59359,-54.27349
2018-12-06 21:40:00+00:00,82.0,75.0,15.4,17.9,,47.59359,-54.27349
2018-12-06 21:50:00+00:00,82.0,78.0,17.04,19.51,,47.59359,-54.27349
2018-12-06 22:00:00+00:00,79.0,78.0,18.23,20.08,,47.59359,-54.27349
2018-12-06 22:10:00+00:00,71.0,69.0,19.75,22.12,,47.59359,-54.27349
2018-12-06 22:20:00+00:00,73.0,66.0,19.49,21.73,,47.59359,-54.27349
2018-12-06 22:30:00+00:00,71.0,73.0,20.21,22.41,,47.59359,-54.27349
2018-12-06 22:40:00+00:00,72.0,70.0,20.59,22.76,,47.59359,-54.27349
2018-12-06 22:50:00+00:00,68.0,67.0,20.83,23.03,,47.59359,-54.27349
2018-12-06 23:00:00+00:00,66.0,68.0,21.35,23.84,,47.59359,-54.27349
2018-12-06 23:10:00+00:00,63.0,61.0,18.43,20.0,,47.59359,-54.27349
2018-12-06 23:20:00+00:00,63.0,68.0,20.52,24.31,,47.59359,-54.27349
2018-12-06 23:30:00+00:00,65.0,70.0,19.74,22.54,,47.59359,-54.27349
2018-12-06 23:40:00+00:00,69.0,71.0,19.38,22.42,,47.59359,-54.27349
2018-12-06 23:50:00+00:00,69.0,74.0,19.28,21.56,,47.59359,-54.27349
